Regional Weather Roundup
Issued by NWS

Home | Current Version | Previous Version | Text Only | Print | Product List | Glossary On
Versions: 1 2 3 4 5 6 7 8 9 10 11 12 13 14 15 16 17 18 19 20 21 22 23 24 25 26
000
ASUS44 KBMX 231410
RWRAL

ALABAMA REGIONAL WEATHER ROUNDUP
NATIONAL WEATHER SERVICE BIRMINGHAM AL
900 AM CDT WED APR 23 2014

NOTE: "FAIR" INDICATES FEW OR NO CLOUDS BELOW 12,000 FEET
WITH NO SIGNIFICANT WEATHER AND/OR OBSTRUCTIONS TO VISIBILITY.

THE REMARK "TC" DENOTES TEMPERATURE IN DEGREES CELSIUS.

ALZ001>011-014-016>018-020-231500-
NORTH ALABAMA

CITY           SKY/WX    TMP DP  RH WIND       PRES   REMARKS
MUSCLE SHOALS  SUNNY     62  43  49 NE7       30.06R
HUNTSVILLE     SUNNY     60  43  53 NE10      30.03S
DECATUR        SUNNY     60  42  51 NE8       30.05R
HALEYVILLE     FAIR      60  42  51 NE7       30.06R
GADSDEN        SUNNY     61  45  55 N8        30.01R
$$

ALZ012-013-022-023-030>036-040>044-231500-
WEST CENTRAL ALABAMA

CITY           SKY/WX    TMP DP  RH WIND       PRES   REMARKS
TUSCALOOSA     SUNNY     63  50  62 NE9       30.02R
$$

ALZ015-024>027-033>036-040>044-231500-
CENTRAL ALABAMA

CITY           SKY/WX    TMP DP  RH WIND       PRES   REMARKS
BIRMINGHAM     MOSUNNY   63  44  50 NE7       30.03R
MONTGOMERY     PTSUNNY   63  60  90 NE5       29.98R
SHELBY CO ARPT SUNNY     66  49  54 VRB5      30.01R
MAXWELL AFB    CLOUDY    63  63 100 N3        29.98R
GREENVILLE     CLOUDY    63  61  93 N5        29.98R FOG
$$

ALZ019-021-028-029-037-038-045>048-231500-
EAST CENTRAL ALABAMA

CITY           SKY/WX    TMP DP  RH WIND       PRES   REMARKS
ANNISTON       SUNNY     64  47  53 N9        30.00R
ALEXANDER CITY SUNNY     71  58  63 N5        29.99R
AUBURN         SUNNY     64  54  68 N9        30.00R
$$

ALZ051>064-231500-
SOUTHWEST ALABAMA

CITY           SKY/WX    TMP DP  RH WIND       PRES   REMARKS
MOBILE         SUNNY     71  64  78 VRB3      29.98R
BROOKLEY FIELD SUNNY     67  63  87 CALM      29.98S
EVERGREEN      CLOUDY    65  62  90 CALM      29.99S FOG
$$

ALZ049-050-065>069-231500-
SOUTHEAST ALABAMA

CITY           SKY/WX    TMP DP  RH WIND       PRES   REMARKS
DOTHAN         SUNNY     68  63  84 CALM      30.00R
OZARK          SUNNY     69  64  85 NW6       29.96S
TROY           CLOUDY    63  61  93 N6        29.98R FOG
EUFAULA        CLOUDY    62  60  93 N3        29.96R FOG
$$



USA.gov is the U.S. government's official web portal to all federal, state and local government web resources and services.